• In India
  • List of Countries
  • For 7 days
  • Water Temperature
  • Satellite Maps
  • Weather Map
  • Weather Widgets
  • user-avatar
    Login

    Hourly Weather Zofipole

    Today, 20 February, Wednesday

    Time Temperature Precipitation Wind Pressure Humidity
    00:00 +4°C° 0.3 mm 3 mps 740 mmHg 85%
    01:00 +5°C° 0 mm 2 mps 740 mmHg 89%
    02:00 +3°C° 0 mm 3 mps 740 mmHg 89%
    03:00 +3°C° 0 mm 3 mps 740 mmHg 89%
    04:00 +1°C° 0 mm 4 mps 740 mmHg 90%
    05:00 +1°C° 0 mm 4 mps 740 mmHg 89%
    06:00 +1°C° 0 mm 4 mps 741 mmHg 89%
    07:00 +1°C° 0 mm 4 mps 741 mmHg 88%
    08:00 +1°C° 0.1 mm 5 mps 741 mmHg 85%
    09:00 +2°C° 0.1 mm 5 mps 742 mmHg 81%
    10:00 +2°C° 0.1 mm 6 mps 742 mmHg 78%
    11:00 +2°C° 0.1 mm 6 mps 742 mmHg 75%
    12:00 +3°C° 0.1 mm 6 mps 742 mmHg 73%
    13:00 +3°C° 0.1 mm 7 mps 743 mmHg 70%
    14:00 +3°C° 0.1 mm 6 mps 743 mmHg 70%
    15:00 +3°C° 0.1 mm 6 mps 743 mmHg 70%
    16:00 +2°C° 0.1 mm 6 mps 743 mmHg 70%
    17:00 +2°C° 0.1 mm 6 mps 743 mmHg 72%
    18:00 +2°C° 0.1 mm 5 mps 744 mmHg 74%
    19:00 +2°C° 0.1 mm 5 mps 744 mmHg 76%
    20:00 +2°C° 0 mm 5 mps 744 mmHg 77%
    21:00 +2°C° 0 mm 5 mps 744 mmHg 77%
    22:00 +2°C° 0 mm 5 mps 745 mmHg 77%
    23:00 +1°C° 0 mm 4 mps 745 mmHg 79%

    Tomorrow, 21 February, Thursday

    Time Temperature Precipitation Wind Pressure Humidity
    00:00 +1°C° 0 mm 4 mps 745 mmHg 81%
    01:00 0°C° 0 mm 4 mps 745 mmHg 83%
    02:00 0°C° 0 mm 4 mps 746 mmHg 83%
    03:00 +1°C° 0 mm 4 mps 746 mmHg 83%
    04:00 +1°C° 0 mm 4 mps 746 mmHg 83%
    05:00 +2°C° 0 mm 3 mps 746 mmHg 84%
    06:00 +2°C° 0 mm 3 mps 746 mmHg 85%
    07:00 +2°C° 0 mm 3 mps 746 mmHg 87%
    08:00 +2°C° 0.1 mm 3 mps 746 mmHg 86%
    09:00 +3°C° 0.1 mm 4 mps 746 mmHg 86%
    10:00 +3°C° 0.1 mm 4 mps 746 mmHg 85%
    11:00 +3°C° 0.1 mm 5 mps 746 mmHg 81%
    12:00 +5°C° 0.1 mm 5 mps 745 mmHg 76%
    13:00 +6°C° 0.1 mm 5 mps 745 mmHg 71%
    14:00 +5°C° 0.5 mm 5 mps 745 mmHg 74%
    15:00 +5°C° 0.5 mm 5 mps 744 mmHg 77%
    16:00 +4°C° 0.5 mm 4 mps 744 mmHg 80%
    17:00 +3°C° 0.8 mm 5 mps 743 mmHg 82%
    18:00 +3°C° 0.8 mm 5 mps 743 mmHg 83%
    19:00 +3°C° 0.8 mm 5 mps 743 mmHg 85%
    20:00 +3°C° 0.7 mm 5 mps 743 mmHg 86%
    21:00 +4°C° 0.7 mm 4 mps 742 mmHg 87%
    22:00 +4°C° 0.7 mm 4 mps 742 mmHg 88%
    23:00 +4°C° 0.3 mm 4 mps 742 mmHg 90%

    Day after tomorrow, 22 February, Friday

    Time Temperature Precipitation Wind Pressure Humidity
    00:00 +4°C° 0.3 mm 4 mps 742 mmHg 91%
    01:00 +4°C° 0.3 mm 3 mps 742 mmHg 93%
    02:00 +4°C° 0.3 mm 3 mps 742 mmHg 93%
    03:00 +3°C° 0.3 mm 4 mps 742 mmHg 94%
    04:00 +3°C° 0.3 mm 4 mps 742 mmHg 94%
    05:00 +1°C° 0.5 mm 5 mps 743 mmHg 91%
    06:00 -2°C° 0.5 mm 6 mps 743 mmHg 88%
    07:00 -5°C° 0.5 mm 8 mps 744 mmHg 85%
    08:00 -5°C° 0 mm 8 mps 746 mmHg 78%
    09:00 -4°C° 0 mm 7 mps 747 mmHg 72%
    10:00 -4°C° 0 mm 7 mps 749 mmHg 66%
    11:00 -4°C° 0 mm 7 mps 750 mmHg 63%
    12:00 -4°C° 0 mm 7 mps 751 mmHg 60%
    13:00 -4°C° 0 mm 6 mps 752 mmHg 57%
    14:00 -5°C° 0 mm 6 mps 752 mmHg 57%
    15:00 -5°C° 0 mm 6 mps 753 mmHg 56%
    16:00 -6°C° 0 mm 6 mps 753 mmHg 56%
    17:00 -6°C° 0 mm 6 mps 754 mmHg 55%
    18:00 -8°C° 0 mm 6 mps 754 mmHg 55%
    19:00 -7°C° 0 mm 5 mps 755 mmHg 55%
    20:00 -7°C° 0 mm 5 mps 755 mmHg 52%
    21:00 -7°C° 0 mm 5 mps 756 mmHg 50%
    22:00 -7°C° 0 mm 5 mps 756 mmHg 48%
    23:00 -7°C° 0 mm 5 mps 757 mmHg 46%

    23 February, Saturday

    Time Temperature Precipitation Wind Pressure Humidity
    00:00 -8°C° 0 mm 5 mps 757 mmHg 45%
    01:00 -8°C° 0 mm 5 mps 757 mmHg 44%
    02:00 -8°C° 0 mm 5 mps 757 mmHg 45%
    03:00 -8°C° 0 mm 5 mps 757 mmHg 45%
    04:00 -8°C° 0 mm 4 mps 757 mmHg 46%
    05:00 -9°C° 0 mm 4 mps 757 mmHg 47%
    06:00 -9°C° 0 mm 4 mps 758 mmHg 49%
    07:00 -8°C° 0 mm 3 mps 758 mmHg 50%
    08:00 -8°C° 0 mm 4 mps 758 mmHg 47%
    09:00 -8°C° 0 mm 4 mps 759 mmHg 43%
    10:00 -7°C° 0 mm 4 mps 759 mmHg 40%
    11:00 -5°C° 0 mm 4 mps 759 mmHg 37%
    12:00 -5°C° 0 mm 4 mps 759 mmHg 35%
    13:00 -4°C° 0 mm 4 mps 759 mmHg 32%
    14:00 -4°C° 0 mm 4 mps 758 mmHg 33%
    15:00 -4°C° 0 mm 4 mps 758 mmHg 34%
    16:00 -4°C° 0 mm 4 mps 758 mmHg 34%
    17:00 -5°C° 0 mm 4 mps 758 mmHg 38%
    18:00 -5°C° 0 mm 3 mps 758 mmHg 41%
    19:00 -6°C° 0 mm 3 mps 758 mmHg 44%
    20:00 -6°C° 0 mm 3 mps 758 mmHg 44%
    21:00 -5°C° 0 mm 3 mps 758 mmHg 45%
    22:00 -4°C° 0 mm 2 mps 758 mmHg 45%
    23:00 -4°C° 0 mm 2 mps 758 mmHg 46%

    24 February, Sunday

    Time Temperature Precipitation Wind Pressure Humidity
    00:00 -4°C° 0 mm 2 mps 758 mmHg 46%
    01:00 -4°C° 0 mm 2 mps 758 mmHg 47%
    02:00 -4°C° 0 mm 2 mps 757 mmHg 47%
    03:00 -4°C° 0 mm 2 mps 757 mmHg 47%
    04:00 -4°C° 0 mm 2 mps 757 mmHg 48%
    05:00 -4°C° 0 mm 2 mps 757 mmHg 48%
    06:00 -4°C° 0 mm 2 mps 757 mmHg 48%
    07:00 -4°C° 0 mm 2 mps 757 mmHg 48%
    08:00 -4°C° 0 mm 3 mps 757 mmHg 44%
    09:00 -2°C° 0 mm 3 mps 756 mmHg 40%
    10:00 -2°C° 0 mm 4 mps 756 mmHg 36%
    11:00 -2°C° 0 mm 4 mps 756 mmHg 38%
    12:00 -1°C° 0 mm 4 mps 756 mmHg 39%
    13:00 0°C° 0 mm 4 mps 755 mmHg 41%
    14:00 -1°C° 0 mm 4 mps 755 mmHg 44%
    15:00 -1°C° 0 mm 4 mps 755 mmHg 48%
    16:00 0°C° 0 mm 3 mps 755 mmHg 52%
    17:00 -1°C° 0 mm 3 mps 755 mmHg 56%
    18:00 -2°C° 0 mm 3 mps 755 mmHg 61%
    19:00 -2°C° 0 mm 2 mps 755 mmHg 65%
    20:00 -2°C° 0 mm 2 mps 755 mmHg 68%
    21:00 -2°C° 0 mm 2 mps 755 mmHg 70%
    22:00 -2°C° 0 mm 2 mps 755 mmHg 73%
    23:00 -2°C° 0 mm 2 mps 755 mmHg 76%

    25 February, Monday

    Time Temperature Precipitation Wind Pressure Humidity
    00:00 -2°C° 0 mm 2 mps 755 mmHg 79%
    01:00 -1°C° 0 mm 2 mps 755 mmHg 82%
    02:00 -2°C° 0 mm 2 mps 755 mmHg 82%
    03:00 -2°C° 0 mm 2 mps 755 mmHg 82%
    04:00 -2°C° 0 mm 2 mps 755 mmHg 82%
    05:00 -2°C° 0 mm 2 mps 754 mmHg 81%
    06:00 -1°C° 0 mm 2 mps 754 mmHg 79%
    07:00 -1°C° 0 mm 2 mps 754 mmHg 77%
    08:00 -1°C° 0.1 mm 3 mps 754 mmHg 75%
    09:00 0°C° 0.1 mm 3 mps 754 mmHg 73%
    10:00 +1°C° 0.1 mm 3 mps 754 mmHg 71%
    11:00 +1°C° 0 mm 4 mps 753 mmHg 67%
    12:00 +3°C° 0 mm 4 mps 753 mmHg 64%
    13:00 +3°C° 0 mm 5 mps 753 mmHg 60%
    14:00 +2°C° 0 mm 5 mps 752 mmHg 67%
    15:00 +3°C° 0 mm 4 mps 752 mmHg 74%
    16:00 +3°C° 0 mm 4 mps 752 mmHg 81%
    17:00 +1°C° 0 mm 4 mps 752 mmHg 84%
    18:00 0°C° 0 mm 4 mps 752 mmHg 87%
    19:00 -1°C° 0 mm 3 mps 753 mmHg 90%
    20:00 -2°C° 0 mm 4 mps 753 mmHg 90%
    21:00 -2°C° 0 mm 4 mps 753 mmHg 90%
    22:00 -2°C° 0 mm 4 mps 753 mmHg 89%
    23:00 -2°C° 0 mm 4 mps 752 mmHg 91%
    Show more